| time (UTC) | temp F | wind direction | speed MPH | gust MPH | rain 1hr in | rain 24hr in | rain mn in | humidity % | barometer mb |
| 20260509131029 | 60 | 205 | 3.0 | 8.0 | 0.00 | 0.00 | 0.00 | 72 | 1013.4 |
| 20260509130533 | -52 | 203 | 1.0 | 5.0 | 0.00 | 0.00 | 0.00 | 1013.3 | |
| 20260509130051 | 59 | 203 | 1.0 | 4.0 | 0.00 | 0.00 | 0.00 | 76 | 1013.5 |
| 20260509125530 | 58 | 203 | 1.0 | 6.0 | 0.00 | 0.00 | 0.00 | 76 | 1013.5 |
| 20260509125029 | 58 | 203 | 1.0 | 6.0 | 0.00 | 0.00 | 0.00 | 77 | 1013.5 |
| 20260509124544 | 57 | 203 | 1.0 | 5.0 | 0.00 | 0.00 | 0.00 | 78 | 1013.6 |
| 20260509124029 | 57 | 0 | 1.0 | 4.0 | 0.00 | 0.00 | 0.00 | 79 | 1013.4 |
| 20260509123530 | 57 | 203 | 0.0 | 4.0 | 0.00 | 0.00 | 0.00 | 79 | 1013.6 |
| 20260509123042 | 56 | 203 | 0.0 | 4.0 | 0.00 | 0.00 | 0.00 | 80 | 1013.8 |
| 20260509122528 | 56 | 0 | 1.0 | 4.0 | 0.00 | 0.00 | 0.00 | 80 | 1013.6 |
| 20260509122033 | 56 | 0 | 0.0 | 3.0 | 0.00 | 0.00 | 0.00 | 81 | 1013.8 |
| 20260509121557 | 55 | 0 | 0.0 | 6.0 | 0.00 | 0.00 | 0.00 | 82 | 1013.9 |
| 20260509121033 | 55 | 0 | 1.0 | 6.0 | 0.00 | 0.00 | 0.00 | 82 | 1013.8 |
| 20260509120534 | 55 | 203 | 1.0 | 5.0 | 0.00 | 0.00 | 0.00 | 82 | 1013.9 |
| 20260509120047 | 54 | 203 | 2.0 | 7.0 | 0.00 | 0.00 | 0.00 | 82 | 1013.9 |
| 20260509115530 | 54 | 203 | 2.0 | 8.0 | 0.00 | 0.00 | 0.00 | 82 | 1014.0 |
| 20260509115030 | 54 | 203 | 4.0 | 8.0 | 0.00 | 0.00 | 0.00 | 83 | 1013.8 |
| 20260509114545 | 54 | 205 | 3.0 | 7.0 | 0.00 | 0.00 | 0.00 | 83 | 1013.8 |
| 20260509114031 | 54 | 205 | 3.0 | 9.0 | 0.00 | 0.00 | 0.00 | 83 | 1013.9 |
| 20260509113534 | 53 | 206 | 3.0 | 9.0 | 0.00 | 0.00 | 0.00 | 83 | 1013.8 |
| 20260509113050 | -63 | 208 | 3.0 | 7.0 | 0.00 | 0.00 | 0.00 | 83 | 1013.8 |
| 20260509112534 | 53 | 208 | 2.0 | 7.0 | 0.00 | 0.00 | 0.00 | 100 | 1013.9 |
| 20260509112031 | 53 | 208 | 2.0 | 7.0 | 0.00 | 0.00 | 0.00 | 84 | 1013.9 |
| 20260509111541 | 53 | 0 | 2.0 | 7.0 | 0.00 | 0.00 | 0.00 | 84 | 1014.0 |
| 20260509111033 | 52 | 209 | 3.0 | 7.0 | 0.00 | 0.00 | 0.00 | 84 | 1013.7 |
| 20260509110531 | -66 | 209 | 2.0 | 6.0 | 0.00 | 0.00 | 0.00 | 1013.8 | |
| 20260509110040 | 52 | 209 | 2.0 | 5.0 | 0.00 | 0.00 | 0.00 | 84 | 1013.9 |
| 20260509105531 | 52 | 209 | 0.0 | 4.0 | 0.00 | 0.00 | 0.00 | 84 | 1013.7 |
| 20260509105031 | 52 | 0 | 1.0 | 3.0 | 0.00 | 0.00 | 0.00 | 84 | 1013.6 |
| 20260509104535 | 52 | 0 | 0.0 | 2.0 | 0.00 | 0.00 | 0.00 | 84 | 1013.6 |
| 20260509104030 | 51 | 0 | 0.0 | 0.0 | 0.00 | 0.00 | 0.00 | 84 | 1013.6 |
| 20260509103534 | 51 | 0 | 0.0 | 0.0 | 0.00 | 0.00 | 0.00 | 84 | 1013.7 |
| 20260509103044 | 51 | 0 | 0.0 | 0.0 | 0.00 | 0.00 | 0.00 | 84 | 1013.6 |
| 20260509102534 | 51 | 0 | 0.0 | 0.0 | 0.00 | 0.00 | 0.00 | 84 | 1013.6 |
| 20260509102032 | 52 | 0 | 0.0 | 0.0 | 0.00 | 0.00 | 0.00 | 84 | 1013.5 |
| 20260509101545 | 51 | 0 | 0.0 | 0.0 | 0.00 | 0.00 | 0.00 | 84 | 1013.6 |
| 20260509101032 | 51 | 0 | 0.0 | 1.0 | 0.00 | 0.00 | 0.00 | 83 | 1013.7 |
| 20260509100532 | 51 | 0 | 0.0 | 4.0 | 0.00 | 0.00 | 0.00 | 83 | 1013.6 |
| 20260509100044 | 51 | 0 | 1.0 | 4.0 | 0.00 | 0.00 | 0.00 | 83 | 1013.3 |
| 20260509095533 | 51 | 209 | 0.0 | 1.0 | 0.00 | 0.00 | 0.00 | 83 | 1013.3 |
| 20260509095031 | 52 | 0 | 0.0 | 0.0 | 0.00 | 0.00 | 0.00 | 83 | 1013.4 |
| 20260509094545 | 52 | 0 | 0.0 | 0.0 | 0.00 | 0.00 | 0.00 | 83 | 1013.5 |
| 20260509094030 | 52 | 0 | 0.0 | 0.0 | 0.00 | 0.00 | 0.00 | 1013.5 | |
| 20260509093531 | 52 | 0 | 0.0 | 1.0 | 0.00 | 0.00 | 0.00 | 82 | 1013.5 |
| 20260509093044 | 52 | 0 | 0.0 | 1.0 | 0.00 | 0.00 | 0.00 | 82 | 1013.5 |
| 20260509092534 | 52 | 0 | 0.0 | 4.0 | 0.00 | 0.00 | 0.00 | 82 | 1013.5 |
| 20260509092038 | 52 | 0 | 0.0 | 4.0 | 0.00 | 0.00 | 0.00 | 82 | 1013.6 |
| 20260509091545 | 52 | 0 | 2.0 | 4.0 | 0.00 | 0.00 | 0.00 | 82 | 1013.8 |
| 20260509091034 | 52 | 209 | 0.0 | 4.0 | 0.00 | 0.00 | 0.00 | 82 | 1013.6 |
| 20260509090534 | 51 | 0 | 0.0 | 4.0 | 0.00 | 0.00 | 0.00 | 82 | 1013.5 |
| 20260509090101 | 51 | 209 | 1.0 | 3.0 | 0.00 | 0.00 | 0.00 | 82 | 1013.4 |
| 20260509085534 | 51 | 0 | 0.0 | 0.0 | 0.00 | 0.00 | 0.00 | 81 | 1013.2 |
| 20260509085034 | 52 | 0 | 0.0 | 3.0 | 0.00 | 0.00 | 0.00 | 81 | 1013.1 |
| 20260509084544 | -68 | 0 | 0.0 | 3.0 | 0.00 | 0.00 | 0.00 | 1013.1 | |
| 20260509084031 | -68 | 209 | 0.0 | 3.0 | 0.00 | 0.00 | 0.00 | 81 | 1013.1 |
| 20260509083533 | 52 | 0 | 0.0 | 2.0 | 0.00 | 0.00 | 0.00 | 81 | 1013.2 |
| 20260509083051 | 52 | 0 | 0.0 | 2.0 | 0.00 | 0.00 | 0.00 | 81 | 1013.3 |
| 20260509082531 | 52 | 0 | 0.0 | 2.0 | 0.00 | 0.00 | 0.00 | 81 | 1013.3 |
| 20260509082031 | 52 | 0 | 0.0 | 3.0 | 0.00 | 0.00 | 0.00 | 81 | 1013.3 |
| 20260509081544 | 52 | 0 | 0.0 | 3.0 | 0.00 | 0.00 | 0.00 | 81 | 1013.4 |
| 20260509081035 | 52 | 0 | 0.0 | 3.0 | 0.00 | 0.00 | 0.00 | 81 | 1013.3 |
| 20260509080534 | 52 | 0 | 1.0 | 3.0 | 0.00 | 0.00 | 0.00 | 81 | 1013.3 |
| 20260509080058 | 52 | 0 | 0.0 | 3.0 | 0.00 | 0.00 | 0.00 | 80 | 1013.3 |
| 20260509075534 | 52 | 0 | 0.0 | 3.0 | 0.00 | 0.00 | 0.00 | 80 | 1013.4 |
| 20260509075034 | 52 | 209 | 0.0 | 3.0 | 0.00 | 0.00 | 0.00 | 81 | 1013.3 |
| 20260509074544 | 52 | 0 | 0.0 | 3.0 | 0.00 | 0.00 | 0.00 | 81 | 1013.2 |
| 20260509074034 | 52 | 0 | 0.0 | 2.0 | 0.00 | 0.00 | 0.00 | 81 | 1013.2 |
| 20260509073534 | 52 | 0 | 0.0 | 3.0 | 0.00 | 0.00 | 0.00 | 80 | 1013.3 |
| 20260509073045 | 52 | 0 | 0.0 | 3.0 | 0.00 | 0.00 | 0.00 | 81 | 1013.4 |
| 20260509072535 | 52 | 209 | 1.0 | 3.0 | 0.00 | 0.00 | 0.00 | 81 | 1013.5 |
| 20260509072031 | -68 | 0 | 0.0 | 4.0 | 0.00 | 0.00 | 0.00 | 81 | 1013.5 |
| 20260509071538 | 52 | 0 | 1.0 | 4.0 | 0.00 | 0.00 | 0.00 | 81 | 1013.5 |
| 20260509071031 | 52 | 0 | 0.0 | 4.0 | 0.00 | 0.00 | 0.00 | 81 | 1013.5 |
| 20260509070531 | 52 | 209 | 1.0 | 5.0 | 0.00 | 0.00 | 0.00 | 81 | 1013.5 |
| 20260509070041 | 52 | 0 | 0.0 | 5.0 | 0.00 | 0.00 | 0.00 | 81 | 1013.6 |
| 20260509065530 | 52 | 209 | 0.0 | 4.0 | 0.00 | 0.00 | 0.00 | 81 | 1013.6 |
| 20260509065030 | 52 | 0 | 0.0 | 2.0 | 0.00 | 0.00 | 0.00 | 81 | 1013.6 |
| 20260509064543 | 52 | 0 | 0.0 | 2.0 | 0.00 | 0.00 | 0.00 | 81 | 1013.7 |
| 20260509064030 | 52 | 0 | 0.0 | 0.0 | 0.00 | 0.00 | 0.00 | 81 | 1013.7 |
| 20260509063533 | -68 | 0 | 0.0 | 3.0 | 0.00 | 0.00 | 0.00 | 1013.7 | |
| 20260509063037 | 52 | 0 | 0.0 | 3.0 | 0.00 | 0.00 | 0.00 | 81 | 1013.7 |
| 20260509062533 | -68 | 209 | 1.0 | 5.0 | 0.00 | 0.00 | 0.00 | 80 | 1013.6 |
| 20260509062034 | 52 | 209 | 1.0 | 5.0 | 0.00 | 0.00 | 0.00 | 80 | 1013.7 |
| 20260509061545 | -68 | 0 | 0.0 | 3.0 | 0.00 | 0.00 | 0.00 | 1013.7 | |
| 20260509061030 | 52 | 0 | 0.0 | 3.0 | 0.00 | 0.00 | 0.00 | 80 | 1013.6 |
| 20260509060531 | 52 | 209 | 1.0 | 4.0 | 0.00 | 0.00 | 0.00 | 80 | 1013.6 |
| 20260509060043 | 52 | 0 | 1.0 | 5.0 | 0.00 | 0.00 | 0.00 | 79 | 1013.6 |
| 20260509055532 | 53 | 209 | 2.0 | 7.0 | 0.00 | 0.00 | 0.00 | 79 | 1013.7 |
| 20260509055032 | 53 | 209 | 2.0 | 7.0 | 0.00 | 0.00 | 0.00 | 79 | 1013.8 |
| 20260509054539 | 52 | 209 | 0.0 | 3.0 | 0.00 | 0.00 | 0.00 | 78 | 1013.7 |
| 20260509054030 | 52 | 0 | 0.0 | 0.0 | 0.00 | 0.00 | 0.00 | 78 | 1013.7 |
| 20260509053531 | 52 | 0 | 0.0 | 0.0 | 0.00 | 0.00 | 0.00 | 78 | 1013.8 |
| 20260509053110 | 52 | 0 | 0.0 | 0.0 | 0.00 | 0.00 | 0.00 | 78 | 1013.9 |
| 20260509052531 | -66 | 0 | 0.0 | 0.0 | 0.00 | 0.00 | 0.00 | 1013.8 | |
| 20260509052030 | -66 | 0 | 0.0 | 0.0 | 0.00 | 0.00 | 0.00 | 100 | 1013.8 |
| 20260509051543 | 52 | 0 | 0.0 | 0.0 | 0.00 | 0.00 | 0.00 | 77 | 1013.8 |
| 20260509051030 | 52 | 0 | 0.0 | 0.0 | 0.00 | 0.00 | 0.00 | 77 | 1013.7 |
| 20260509050532 | 53 | 0 | 0.0 | 0.0 | 0.00 | 0.00 | 0.00 | 77 | 1013.8 |
| 20260509050044 | 53 | 0 | 0.0 | 0.0 | 0.00 | 0.00 | 0.00 | 76 | 1013.7 |
| 20260509045530 | 53 | 0 | 0.0 | 0.0 | 0.00 | 0.00 | 0.00 | 76 | 1013.8 |
| 20260509045030 | 53 | 0 | 0.0 | 0.0 | 0.00 | 0.00 | 0.00 | 76 | 1013.7 |
| 20260509044544 | 53 | 0 | 0.0 | 0.0 | 0.00 | 0.00 | 0.00 | 76 | 1013.7 |
| 20260509044030 | 53 | 0 | 0.0 | 0.0 | 0.00 | 0.00 | 0.00 | 76 | 1013.7 |
| 20260509043530 | 53 | 0 | 0.0 | 0.0 | 0.00 | 0.00 | 0.00 | 76 | 1013.9 |
| 20260509043103 | 53 | 0 | 0.0 | 0.0 | 0.00 | 0.00 | 0.00 | 76 | 1013.9 |
| 20260509042530 | 53 | 0 | 0.0 | 4.0 | 0.00 | 0.00 | 0.00 | 76 | 1013.9 |
| 20260509042038 | 53 | 0 | 0.0 | 4.0 | 0.00 | 0.00 | 0.00 | 76 | 1014.0 |
| 20260509041557 | 53 | 209 | 1.0 | 5.0 | 0.00 | 0.00 | 0.00 | 76 | 1013.9 |
| 20260509041034 | 53 | 0 | 1.0 | 7.0 | 0.00 | 0.00 | 0.00 | 76 | 1014.1 |
| 20260509040534 | 53 | 209 | 1.0 | 7.0 | 0.00 | 0.00 | 0.00 | 76 | 1013.9 |
| 20260509040054 | 53 | 209 | 2.0 | 7.0 | 0.00 | 0.00 | 0.00 | 1013.8 | |
| 20260509035534 | 53 | 209 | 1.0 | 8.0 | 0.00 | 0.00 | 0.00 | 76 | 1014.0 |
| 20260509035034 | 53 | 209 | 2.0 | 8.0 | 0.00 | 0.00 | 0.00 | 76 | 1013.9 |
| 20260509034554 | 53 | 0 | 1.0 | 6.0 | 0.00 | 0.00 | 0.00 | 76 | 1013.8 |
| 20260509034030 | 53 | 0 | 2.0 | 7.0 | 0.00 | 0.00 | 0.00 | 76 | 1013.8 |
| 20260509033531 | 53 | 209 | 1.0 | 7.0 | 0.00 | 0.00 | 0.00 | 77 | 1013.8 |
| 20260509033039 | 53 | 209 | 0.0 | 6.0 | 0.00 | 0.00 | 0.00 | 77 | 1013.9 |
| 20260509032531 | 53 | 209 | 1.0 | 6.0 | 0.00 | 0.00 | 0.00 | 77 | 1013.9 |
| 20260509032030 | 53 | 209 | 1.0 | 6.0 | 0.00 | 0.00 | 0.00 | 77 | 1013.9 |
| 20260509031601 | 52 | 209 | 1.0 | 5.0 | 0.00 | 0.00 | 0.00 | 77 | 1013.9 |
| 20260509031034 | 52 | 0 | 0.0 | 5.0 | 0.00 | 0.00 | 0.00 | 77 | 1014.0 |
| 20260509030534 | 52 | 0 | 1.0 | 6.0 | 0.00 | 0.00 | 0.00 | 77 | 1013.8 |
| 20260509030049 | 52 | 0 | 1.0 | 6.0 | 0.00 | 0.00 | 0.00 | 77 | 1013.8 |
| 20260509025535 | 52 | 209 | 0.0 | 5.0 | 0.00 | 0.00 | 0.00 | 77 | 1013.8 |
| 20260509025034 | 52 | 209 | 1.0 | 5.0 | 0.00 | 0.00 | 0.00 | 77 | 1013.8 |
| 20260509024541 | -68 | 0 | 2.0 | 4.0 | 0.00 | 0.00 | 0.00 | 1013.9 | |
| 20260509024034 | -68 | 0 | 1.0 | 5.0 | 0.00 | 0.00 | 0.00 | 1013.9 | |
| 20260509023534 | 51 | 209 | 1.0 | 5.0 | 0.00 | 0.00 | 0.00 | 77 | 1013.8 |
| 20260509023039 | 51 | 209 | 2.0 | 6.0 | 0.00 | 0.00 | 0.00 | 78 | 1013.8 |
| 20260509022531 | -68 | 209 | 1.0 | 7.0 | 0.00 | 0.00 | 0.00 | 78 | 1013.7 |
| 20260509022031 | -68 | 209 | 1.0 | 7.0 | 0.00 | 0.00 | 0.00 | 1013.9 | |
| 20260509021537 | 52 | 209 | 2.0 | 6.0 | 0.00 | 0.00 | 0.00 | 78 | 1013.9 |
| 20260509021036 | 52 | 209 | 1.0 | 9.0 | 0.00 | 0.00 | 0.00 | 78 | 1013.9 |
| 20260509020537 | 52 | 209 | 3.0 | 9.0 | 0.00 | 0.00 | 0.00 | 78 | 1013.9 |
| 20260509020047 | 52 | 209 | 2.0 | 8.0 | 0.00 | 0.00 | 0.00 | 78 | 1013.9 |
| 20260509015534 | 52 | 209 | 3.0 | 8.0 | 0.00 | 0.00 | 0.00 | 78 | 1013.8 |
| 20260509015033 | 52 | 209 | 2.0 | 8.0 | 0.00 | 0.00 | 0.00 | 78 | 1013.6 |
| 20260509014551 | 52 | 209 | 3.0 | 8.0 | 0.00 | 0.00 | 0.00 | 78 | 1013.7 |
| 20260509014030 | 52 | 209 | 1.0 | 9.0 | 0.00 | 0.00 | 0.00 | 78 | 1013.6 |
| 20260509013530 | -66 | 209 | 3.0 | 12.0 | 0.00 | 0.00 | 0.00 | 78 | 1013.5 |
| 20260509013051 | 53 | 209 | 2.0 | 12.0 | 0.00 | 0.00 | 0.00 | 1013.2 | |
| 20260509012530 | 53 | 222 | 2.0 | 10.0 | 0.00 | 0.00 | 0.00 | 76 | 1013.3 |
| 20260509012034 | 53 | 0 | 2.0 | 10.0 | 0.00 | 0.00 | 0.00 | 75 | 1013.2 |
| 20260509011553 | -66 | 236 | 2.0 | 9.0 | 0.00 | 0.00 | 0.00 | 74 | 1013.1 |
| 20260509011035 | 54 | 238 | 2.0 | 10.0 | 0.00 | 0.00 | 0.00 | 100 | 1013.0 |
| 20260509010536 | 54 | 238 | 2.0 | 10.0 | 0.00 | 0.00 | 0.00 | 73 | 1013.0 |
| 20260509010051 | 54 | 238 | 3.0 | 10.0 | 0.00 | 0.00 | 0.00 | 73 | 1012.9 |
| 20260509005534 | -63 | 240 | 2.0 | 8.0 | 0.00 | 0.00 | 0.00 | 1012.9 | |
| 20260509005031 | 54 | 240 | 3.0 | 7.0 | 0.00 | 0.00 | 0.00 | 72 | 1012.8 |
| 20260509004539 | 54 | 240 | 2.0 | 7.0 | 0.00 | 0.00 | 0.00 | 72 | 1012.6 |
| 20260509004034 | 55 | 240 | 2.0 | 6.0 | 0.00 | 0.00 | 0.00 | 72 | 1012.5 |
| 20260509003534 | -61 | 240 | 2.0 | 7.0 | 0.00 | 0.00 | 0.00 | 71 | 1012.4 |
| 20260509003040 | -61 | 240 | 2.0 | 7.0 | 0.00 | 0.00 | 0.00 | 71 | 1012.3 |
| 20260509002533 | 55 | 240 | 1.0 | 9.0 | 0.00 | 0.00 | 0.00 | 70 | 1012.3 |
| 20260509002030 | 56 | 240 | 3.0 | 9.0 | 0.00 | 0.00 | 0.00 | 69 | 1012.2 |
| 20260509001538 | 56 | 244 | 2.0 | 5.0 | 0.00 | 0.00 | 0.00 | 68 | 1012.3 |
| 20260509001032 | 56 | 244 | 2.0 | 5.0 | 0.00 | 0.00 | 0.00 | 68 | 1012.2 |
| 20260509000534 | 56 | 0 | 1.0 | 5.0 | 0.00 | 0.00 | 0.00 | 67 | 1012.2 |
| 20260509000043 | 56 | 0 | 1.0 | 4.0 | 0.00 | 0.00 | 0.00 | 1012.3 | |
| 20260508235534 | 56 | 244 | 1.0 | 9.0 | 0.00 | 0.00 | 0.00 | 66 | 1012.1 |
| 20260508235034 | 57 | 244 | 1.0 | 9.0 | 0.00 | 0.00 | 0.00 | 1011.9 | |
| 20260508234544 | 57 | 244 | 3.0 | 9.0 | 0.00 | 0.00 | 0.00 | 64 | 1011.9 |
| 20260508234034 | -59 | 247 | 4.0 | 13.0 | 0.00 | 0.00 | 0.00 | 1012.0 | |
| 20260508233534 | -59 | 250 | 5.0 | 15.0 | 0.00 | 0.00 | 0.00 | 1011.9 | |
| 20260508233040 | -59 | 239 | 5.0 | 17.0 | 0.00 | 0.00 | 0.00 | 1011.8 | |
| 20260508232533 | -59 | 263 | 7.0 | 17.0 | 0.00 | 0.00 | 0.00 | 1011.7 | |
| 20260508232036 | 56 | 214 | 5.0 | 16.0 | 0.00 | 0.00 | 0.00 | 64 | 1011.7 |
| 20260508231535 | 56 | 261 | 6.0 | 15.0 | 0.00 | 0.00 | 0.00 | 64 | 1011.7 |
| 20260508231034 | 56 | 263 | 6.0 | 15.0 | 0.00 | 0.00 | 0.00 | 64 | 1011.6 |
| 20260508230531 | 57 | 254 | 5.0 | 12.0 | 0.00 | 0.00 | 0.00 | 64 | 1011.6 |
| 20260508230053 | 57 | 240 | 4.0 | 10.0 | 0.00 | 0.00 | 0.00 | 64 | 1011.6 |
| 20260508225530 | 57 | 244 | 5.0 | 12.0 | 0.00 | 0.00 | 0.00 | 63 | 1011.5 |
| 20260508225031 | -56 | 244 | 5.0 | 12.0 | 0.00 | 0.00 | 0.00 | 62 | 1011.5 |
| 20260508224545 | 58 | 251 | 4.0 | 12.0 | 0.00 | 0.00 | 0.00 | 62 | 1011.4 |
| 20260508224034 | 57 | 248 | 4.0 | 12.0 | 0.00 | 0.00 | 0.00 | 63 | 1011.4 |
| 20260508223534 | 57 | 260 | 5.0 | 12.0 | 0.00 | 0.00 | 0.00 | 63 | 1011.4 |
| 20260508223045 | 57 | 261 | 5.0 | 13.0 | 0.00 | 0.00 | 0.00 | 64 | 1011.5 |
| 20260508222534 | 56 | 267 | 6.0 | 14.0 | 0.00 | 0.00 | 0.00 | 67 | 1011.6 |
| 20260508222034 | -61 | 258 | 9.0 | 15.0 | 0.00 | 0.00 | 0.00 | 1011.7 | |
| 20260508221551 | -63 | 300 | 9.0 | 15.0 | 0.00 | 0.00 | 0.00 | 1011.7 | |
| 20260508221033 | -63 | 296 | 11.0 | 15.0 | 0.00 | 0.00 | 0.00 | 1011.6 | |
| 20260508220532 | 55 | 323 | 5.0 | 10.0 | 0.00 | 0.00 | 0.00 | 78 | 1011.6 |
| 20260508220046 | 55 | 323 | 5.0 | 10.0 | 0.00 | 0.00 | 0.00 | 77 | 1011.6 |
| 20260508215532 | 56 | 328 | 4.0 | 8.0 | 0.00 | 0.00 | 0.00 | 78 | 1011.6 |
| 20260508215034 | 56 | 329 | 4.0 | 6.0 | 0.00 | 0.00 | 0.00 | 77 | 1011.5 |
| 20260508214544 | 56 | 331 | 4.0 | 6.0 | 0.00 | 0.00 | 0.00 | 76 | 1011.4 |
| 20260508214032 | 56 | 331 | 3.0 | 5.0 | 0.00 | 0.00 | 0.00 | 76 | 1011.4 |
| 20260508213533 | -61 | 331 | 2.0 | 4.0 | 0.00 | 0.00 | 0.00 | 1011.3 | |
| 20260508213045 | 55 | 331 | 2.0 | 5.0 | 0.00 | 0.00 | 0.00 | 75 | 1011.3 |
| 20260508212531 | -61 | 331 | 2.0 | 5.0 | 0.00 | 0.00 | 0.00 | 1011.4 | |
| 20260508212030 | 55 | 331 | 3.0 | 5.0 | 0.00 | 0.00 | 0.00 | 100 | 1011.5 |
| 20260508211543 | 55 | 331 | 3.0 | 5.0 | 0.00 | 0.00 | 0.00 | 75 | 1011.4 |
| 20260508211034 | -63 | 331 | 3.0 | 5.0 | 0.00 | 0.00 | 0.00 | 1011.4 | |
| 20260508210536 | 54 | 331 | 2.0 | 9.0 | 0.00 | 0.00 | 0.00 | 79 | 1011.4 |
| 20260508210042 | 53 | 331 | 4.0 | 11.0 | 0.00 | 0.00 | 0.00 | 79 | 1011.2 |
| 20260508205533 | 53 | 331 | 8.0 | 15.0 | 0.00 | 0.00 | 0.00 | 78 | 1011.4 |
| 20260508205035 | 53 | 331 | 11.0 | 17.0 | 0.00 | 0.00 | 0.00 | 77 | 1011.5 |
| 20260508204548 | 54 | 332 | 13.0 | 22.0 | 0.00 | 0.00 | 0.00 | 75 | 1011.5 |
| 20260508204032 | 54 | 317 | 15.0 | 22.0 | 0.00 | 0.00 | 0.00 | 75 | 1011.4 |
| 20260508203533 | 54 | 341 | 16.0 | 24.0 | 0.00 | 0.00 | 0.00 | 76 | 1011.4 |
| 20260508203047 | 55 | 291 | 15.0 | 24.0 | 0.00 | 0.00 | 0.00 | 76 | 1011.3 |
| 20260508202534 | 55 | 263 | 16.0 | 24.0 | 0.00 | 0.00 | 0.00 | 74 | 1011.3 |
| 20260508202033 | -61 | 279 | 15.0 | 24.0 | 0.00 | 0.00 | 0.00 | 73 | 1011.2 |
| 20260508201543 | 55 | 286 | 17.0 | 24.0 | 0.00 | 0.00 | 0.00 | 72 | 1011.3 |
| 20260508201032 | 56 | 270 | 17.0 | 25.0 | 0.00 | 0.00 | 0.00 | 72 | 1011.2 |
| 20260508200534 | 56 | 277 | 17.0 | 25.0 | 0.00 | 0.00 | 0.00 | 71 | 1011.1 |
| 20260508200052 | 56 | 263 | 16.0 | 25.0 | 0.00 | 0.00 | 0.00 | 100 | 1011.0 |
| 20260508195534 | 56 | 266 | 17.0 | 23.0 | 0.00 | 0.00 | 0.00 | 72 | 1011.1 |
| 20260508195034 | 57 | 268 | 16.0 | 23.0 | 0.00 | 0.00 | 0.00 | 70 | 1011.0 |
| 20260508194541 | 56 | 259 | 15.0 | 22.0 | 0.00 | 0.00 | 0.00 | 69 | 1010.9 |
| 20260508194033 | 56 | 241 | 13.0 | 19.0 | 0.00 | 0.00 | 0.00 | 1010.8 | |
| 20260508193534 | 56 | 269 | 13.0 | 19.0 | 0.00 | 0.00 | 0.00 | 72 | 1010.8 |
| 20260508193044 | 56 | 282 | 11.0 | 17.0 | 0.00 | 0.00 | 0.00 | 100 | 1010.7 |
| 20260508192535 | 56 | 281 | 13.0 | 18.0 | 0.00 | 0.00 | 0.00 | 70 | 1010.7 |
| 20260508192033 | 56 | 281 | 13.0 | 18.0 | 0.00 | 0.00 | 0.00 | 71 | 1010.7 |
| 20260508191550 | 56 | 277 | 12.0 | 18.0 | 0.00 | 0.00 | 0.00 | 71 | 1010.5 |
| 20260508191034 | 56 | 276 | 13.0 | 21.0 | 0.00 | 0.00 | 0.00 | 70 | 1010.6 |
| 20260508190534 | 56 | 290 | 16.0 | 21.0 | 0.00 | 0.00 | 0.00 | 70 | 1010.7 |
| 20260508190050 | -61 | 290 | 16.0 | 24.0 | 0.00 | 0.00 | 0.00 | 1010.9 | |
| 20260508185533 | -61 | 287 | 15.0 | 24.0 | 0.00 | 0.00 | 0.00 | 1010.9 | |
| 20260508185032 | -59 | 286 | 18.0 | 26.0 | 0.00 | 0.00 | 0.00 | 68 | 1010.8 |
| 20260508184546 | 56 | 279 | 18.0 | 26.0 | 0.00 | 0.00 | 0.00 | 68 | 1010.8 |
| 20260508184032 | 56 | 267 | 14.0 | 19.0 | 0.00 | 0.00 | 0.00 | 100 | 1010.9 |
| 20260508183532 | -59 | 277 | 14.0 | 21.0 | 0.00 | 0.00 | 0.00 | 1010.9 | |
| 20260508183044 | 158 | 268 | 14.0 | 21.0 | 0.00 | 0.00 | 0.00 | 1011.0 | |
| 20260508182534 | -59 | 277 | 14.0 | 22.0 | 0.00 | 0.00 | 0.00 | 1011.0 | |
| 20260508182034 | -56 | 266 | 14.0 | 22.0 | 0.00 | 0.00 | 0.00 | 1011.0 | |
| 20260508181549 | -54 | 248 | 13.0 | 26.0 | 0.00 | 0.00 | 0.00 | 1011.0 | |
| 20260508181034 | -54 | 262 | 12.0 | 26.0 | 0.00 | 0.00 | 0.00 | 1010.9 | |
| 20260508180534 | -54 | 265 | 11.0 | 21.0 | 0.00 | 0.00 | 0.00 | 1010.9 | |
| 20260508180050 | -54 | 277 | 12.0 | 21.0 | 0.00 | 0.00 | 0.00 | 1010.8 | |
| 20260508175534 | 58 | 261 | 12.0 | 21.0 | 0.00 | 0.00 | 0.00 | 53 | 1010.8 |
| 20260508175034 | 58 | 264 | 12.0 | 21.0 | 0.00 | 0.00 | 0.00 | 52 | 1010.7 |
| 20260508174545 | 58 | 265 | 11.0 | 20.0 | 0.00 | 0.00 | 0.00 | 54 | 1010.9 |
| 20260508174032 | 58 | 261 | 11.0 | 20.0 | 0.00 | 0.00 | 0.00 | 55 | 1010.9 |
| 20260508173534 | 58 | 239 | 11.0 | 19.0 | 0.00 | 0.00 | 0.00 | 55 | 1011.1 |
| 20260508173045 | 58 | 266 | 13.0 | 21.0 | 0.00 | 0.00 | 0.00 | 57 | 1011.2 |
| 20260508172533 | 58 | 266 | 13.0 | 21.0 | 0.00 | 0.00 | 0.00 | 57 | 1011.2 |
| 20260508172033 | 57 | 278 | 10.0 | 19.0 | 0.00 | 0.00 | 0.00 | 58 | 1011.1 |
| 20260508171551 | 57 | 237 | 10.0 | 17.0 | 0.00 | 0.00 | 0.00 | 61 | 1011.2 |
| 20260508171037 | 56 | 265 | 10.0 | 15.0 | 0.00 | 0.00 | 0.00 | 61 | 1011.2 |
| 20260508170536 | 56 | 271 | 7.0 | 12.0 | 0.00 | 0.00 | 0.00 | 68 | 1011.2 |
| 20260508170054 | 56 | 262 | 8.0 | 14.0 | 0.00 | 0.00 | 0.00 | 67 | 1011.3 |
| 20260508165533 | 55 | 268 | 8.0 | 15.0 | 0.00 | 0.00 | 0.00 | 69 | 1011.3 |
| 20260508165034 | 55 | 262 | 10.0 | 17.0 | 0.00 | 0.00 | 0.00 | 69 | 1011.4 |
| 20260508164548 | 55 | 273 | 11.0 | 17.0 | 0.00 | 0.00 | 0.00 | 71 | 1011.4 |
| 20260508164033 | 54 | 269 | 11.0 | 16.0 | 0.00 | 0.00 | 0.00 | 72 | 1011.4 |
| 20260508163533 | 54 | 267 | 10.0 | 15.0 | 0.00 | 0.00 | 0.00 | 74 | 1011.4 |
| 20260508163037 | 54 | 264 | 8.0 | 16.0 | 0.00 | 0.00 | 0.00 | 73 | 1011.5 |
| 20260508162533 | 54 | 259 | 11.0 | 16.0 | 0.00 | 0.00 | 0.00 | 72 | 1011.7 |
| 20260508162035 | 54 | 262 | 10.0 | 15.0 | 0.00 | 0.00 | 0.00 | 74 | 1011.7 |
| 20260508161537 | 54 | 264 | 10.0 | 15.0 | 0.00 | 0.00 | 0.00 | 76 | 1011.8 |
| 20260508161032 | 54 | 265 | 10.0 | 14.0 | 0.00 | 0.00 | 0.00 | 75 | 1011.8 |
| 20260508160532 | 54 | 268 | 10.0 | 14.0 | 0.00 | 0.00 | 0.00 | 74 | 1011.8 |
| 20260508160051 | 54 | 261 | 10.0 | 14.0 | 0.00 | 0.00 | 0.00 | 74 | 1011.8 |
| 20260508155537 | 54 | 266 | 10.0 | 14.0 | 0.00 | 0.00 | 0.00 | 74 | 1011.9 |
| 20260508155032 | 54 | 266 | 9.0 | 14.0 | 0.00 | 0.00 | 0.00 | 75 | 1011.9 |
| 20260508154539 | 54 | 273 | 10.0 | 15.0 | 0.00 | 0.00 | 0.00 | 76 | 1011.8 |
| 20260508154033 | 53 | 260 | 10.0 | 15.0 | 0.00 | 0.00 | 0.00 | 77 | 1011.9 |
| 20260508153532 | 53 | 263 | 9.0 | 15.0 | 0.00 | 0.00 | 0.00 | 77 | 1011.9 |
| 20260508153037 | 53 | 270 | 9.0 | 13.0 | 0.00 | 0.00 | 0.00 | 77 | 1011.9 |
| 20260508152532 | 53 | 271 | 9.0 | 12.0 | 0.00 | 0.00 | 0.00 | 77 | 1011.8 |
| 20260508152032 | 53 | 270 | 8.0 | 11.0 | 0.00 | 0.00 | 0.00 | 76 | 1011.8 |
| 20260508151546 | 53 | 271 | 7.0 | 11.0 | 0.00 | 0.00 | 0.00 | 77 | 1011.7 |
| 20260508151033 | 53 | 268 | 8.0 | 14.0 | 0.00 | 0.00 | 0.00 | 78 | 1011.7 |
| 20260508150533 | 53 | 266 | 8.0 | 14.0 | 0.00 | 0.00 | 0.00 | 78 | 1011.8 |
| 20260508150044 | -66 | 268 | 10.0 | 14.0 | 0.00 | 0.00 | 0.00 | 1011.9 | |
| 20260508145534 | -66 | 267 | 10.0 | 14.0 | 0.00 | 0.00 | 0.00 | 1011.9 | |
| 20260508145031 | -66 | 274 | 10.0 | 14.0 | 0.00 | 0.00 | 0.00 | 1012.0 | |
| 20260508144539 | -66 | 267 | 9.0 | 14.0 | 0.00 | 0.00 | 0.00 | 1011.9 | |
| 20260508144035 | -66 | 269 | 9.0 | 14.0 | 0.00 | 0.00 | 0.00 | 1011.9 | |
| 20260508143534 | -68 | 269 | 9.0 | 17.0 | 0.00 | 0.00 | 0.00 | 1011.8 | |
| 20260508143040 | -68 | 263 | 10.0 | 17.0 | 0.00 | 0.00 | 0.00 | 78 | 1011.9 |
| 20260508142533 | 51 | 266 | 11.0 | 16.0 | 0.00 | 0.00 | 0.00 | 78 | 1012.0 |
| 20260508142034 | 52 | 270 | 11.0 | 16.0 | 0.00 | 0.00 | 0.00 | 78 | 1012.0 |
| 20260508141539 | 52 | 263 | 11.0 | 16.0 | 0.00 | 0.00 | 0.00 | 78 | 1011.9 |
| 20260508141032 | 52 | 263 | 11.0 | 14.0 | 0.00 | 0.00 | 0.00 | 78 | 1012.0 |
| 20260508140533 | 52 | 265 | 9.0 | 13.0 | 0.00 | 0.00 | 0.00 | 78 | 1012.0 |
| 20260508140039 | 52 | 266 | 8.0 | 12.0 | 0.00 | 0.00 | 0.00 | 78 | 1011.9 |
| 20260508135532 | 52 | 263 | 9.0 | 12.0 | 0.00 | 0.00 | 0.00 | 78 | 1011.9 |
| 20260508135035 | 52 | 259 | 9.0 | 13.0 | 0.00 | 0.00 | 0.00 | 78 | 1011.9 |
| 20260508134545 | 52 | 263 | 8.0 | 13.0 | 0.00 | 0.00 | 0.00 | 78 | 1012.0 |
| 20260508134031 | 52 | 267 | 9.0 | 13.0 | 0.00 | 0.00 | 0.00 | 78 | 1012.0 |
| 20260508133534 | 52 | 262 | 8.0 | 12.0 | 0.00 | 0.00 | 0.00 | 78 | 1012.0 |
| 20260508133042 | 52 | 264 | 8.0 | 12.0 | 0.00 | 0.00 | 0.00 | 78 | 1012.1 |
| 20260508132531 | 52 | 265 | 8.0 | 13.0 | 0.00 | 0.00 | 0.00 | 78 | 1012.1 |
| 20260508132034 | 52 | 273 | 8.0 | 14.0 | 0.00 | 0.00 | 0.00 | 78 | 1012.1 |
| 20260508131541 | 51 | 276 | 10.0 | 15.0 | 0.00 | 0.00 | 0.00 | 78 | 1012.2 |